Location: New Canada
(47.1017°N, 68.5042°W)
Time: 14:39:52
(UTC+00:00)

EO-79 - Visible Passes

Search period start: 01 April 2023 00:00
Search period end: 11 April 2023 00:00
Orbit: 581 x 596 km, 98.0° (Epoch: 31 March)

Date Brightness Start Highest point End Pass type
(mag) Time Alt. Az. Time Alt. Az. Time Alt. Az.
01 Apr ? 05:52:37 10° NE 05:53:20 13° NE 05:53:20 13° NE visible
01 Apr ? 07:27:29 10° N 07:29:51 29° NNW 07:29:51 29° NNW visible
02 Apr ? 05:59:56 10° NE 06:01:03 16° NE 06:01:03 16° NE visible
02 Apr ? 07:35:05 10° N 07:37:34 27° NNW 07:37:34 27° NNW visible
03 Apr ? 06:07:15 10° NE 06:08:45 19° NE 06:08:45 19° NE visible
03 Apr ? 07:42:42 10° N 07:45:15 26° NW 07:45:15 26° NW visible
04 Apr ? 06:14:36 10° NNE 06:16:25 22° NE 06:16:25 22° NE visible
04 Apr ? 07:50:19 10° N 07:52:56 23° NW 07:52:56 23° NW visible
05 Apr ? 06:21:58 10° NNE 06:24:04 26° NE 06:24:04 26° NE visible
05 Apr ? 07:57:57 10° NNW 08:00:35 21° NW 08:00:35 21° NW visible
06 Apr ? 06:29:19 10° NNE 06:31:43 30° NE 06:31:43 30° NE visible
06 Apr ? 08:05:36 10° NNW 08:08:13 18° WNW 08:08:13 18° WNW visible
07 Apr ? 06:36:42 10° NNE 06:39:20 36° NE 06:39:20 36° NE visible
07 Apr ? 08:13:17 10° NNW 08:15:49 16° WNW 08:15:50 16° WNW visible
08 Apr ? 06:44:04 10° NNE 06:46:56 42° NNE 06:46:56 42° NNE visible
08 Apr ? 08:21:02 10° NNW 08:23:08 14° WNW 08:23:26 14° WNW visible
09 Apr ? 06:51:26 10° NNE 06:54:31 49° NNE 06:54:31 49° NNE visible
09 Apr ? 08:28:54 10° NW 08:30:26 12° WNW 08:31:01 12° WNW visible
10 Apr ? 06:58:49 10° NNE 07:02:04 54° N 07:02:04 54° N visible
10 Apr ? 08:37:23 10° NW 08:37:42 10° WNW 08:38:00 10° WNW visible
